カタログに戻る

HULIANWANG DIGUI-16

運用中通信LEO
NORAD 62976·PAYLOAD·🇨🇳 China

打ち上げ Feb 11, 2025 から Wenchang Space Launch Site

Loading…

次のパス (今後24時間)

TLE

最新Source: Space-Track

元期: Sep 14, 2026, 13:58 UTC

1 62976U 25030F   26257.58201140 -.00000093  00000-0  65858-4 0  9992
2 62976  50.0041 275.0069 0000338  16.1082 343.9801 13.29327927 77752

AllMySatでHULIANWANG DIGUI-16をリアルタイム追跡

Download on the App Store